Anoka County, MN

12:18 PM CST on December 15, 2019 (GMT -0600)
Anoka County / Blaine Airport

Weather History for KANE - August, 2019

Change the Weather History Date:

Thursday, August 1, 2019

  Actual Average Record
Temperature  
Mean Temperature 72 °F -  
Max Temperature 84 °F 79 °F 93 °F (2012)
Min Temperature 60 °F 60 °F 55 °F (1999)
Cooling Degree Days 7    
Growing Degree Days 22 (Base 50)    
Moisture  
Dew Point 60 °F    
Average Humidity 75    
Maximum Humidity 100    
Minimum Humidity 35    
Precipitation  
Precipitation 0.03 in - - ()
Sea Level Pressure  
Sea Level Pressure 30.16 in    
Wind  
Wind Speed 2 mph (South)    
Max Wind Speed 12 mph    
Max Gust Speed -    
Visibility 10 miles    
Events      
Averages and records for this station are not official NWS values.
T = Trace of Precipitation, MM = Missing Value Source: NWS Daily Summary

Daily Weather History Graph

Daily Weather History Graph

Search for Another Location

Airport or City:

Astronomy

Aug. 01, 2019 Rise Set
Actual Time 5:57 AM CDT 8:40 PM CDT
Civil Twilight 5:23 AM CDT 9:13 PM CDT
Nautical Twilight 4:40 AM CDT 9:56 PM CDT
Astronomical Twilight 3:51 AM CDT 10:45 PM CDT
Moon 6:22 AM CDT (8/1) 9:26 PM CDT (8/1)
Length of Visible Light 15h 50m
Length of Day
14h 42m
New Moon, 1% of the Moon is Illuminated
Aug 1
New Moon
Aug 7
First Quarter
Aug 15
Full
Aug 23
Last Quarter
Aug 30
New

Hourly Weather History & Observations

Time (CDT) Temp. Heat Index Dew Point Humidity Pressure Visibility Wind Dir Wind Speed Gust Speed Precip Events Conditions
12:16 AM 66.2 °F - 59.0 °F 78% 30.15 in 10.0 mi ESE 4.6 mph - N/A   Clear
12:35 AM 64.4 °F - 57.2 °F 77% 30.15 in 10.0 mi SE 3.5 mph - N/A   Clear
12:39 AM 64.4 °F - 57.2 °F 77% 30.15 in 10.0 mi SE 3.5 mph - N/A   Clear
12:58 AM 66.2 °F - 59.0 °F 78% 30.15 in 10.0 mi Calm Calm - N/A   Clear
1:16 AM 66.2 °F - 59.0 °F 78% 30.15 in 10.0 mi Calm Calm - 0.01 in   Clear
1:36 AM 66.2 °F - 59.0 °F 78% 30.15 in 10.0 mi Calm Calm - 0.01 in   Clear
1:56 AM 66.2 °F - 59.0 °F 78% 30.15 in 10.0 mi Calm Calm - N/A   Clear
2:18 AM 64.4 °F - 59.0 °F 83% 30.15 in 10.0 mi Calm Calm - N/A   Clear
2:36 AM 62.6 °F - 60.8 °F 94% 30.15 in 10.0 mi Calm Calm - 0.01 in   Clear
2:55 AM 64.4 °F - 60.8 °F 88% 30.15 in 10.0 mi Calm Calm - 0.01 in   Clear
3:16 AM 62.6 °F - 60.8 °F 94% 30.16 in 10.0 mi Calm Calm - N/A   Clear
3:35 AM 62.6 °F - 60.8 °F 94% 30.15 in 10.0 mi Calm Calm - N/A   Clear
3:39 AM 62.6 °F - 60.8 °F 94% 30.15 in 10.0 mi Calm Calm - N/A   Clear
3:57 AM 62.6 °F - 60.8 °F 94% 30.14 in 10.0 mi Calm Calm - N/A   Clear
4:16 AM 64.4 °F - 62.6 °F 94% 30.15 in 10.0 mi SSE 3.5 mph - 0.01 in   Clear
4:36 AM 62.6 °F - 60.8 °F 94% 30.15 in 10.0 mi SSE 3.5 mph - 0.01 in   Clear
4:56 AM 62.6 °F - 60.8 °F 94% 30.16 in 10.0 mi South 3.5 mph - N/A   Clear
5:18 AM 64.4 °F - 62.6 °F 94% 30.16 in 10.0 mi Calm Calm - N/A   Clear
5:36 AM 62.6 °F - 60.8 °F 94% 30.16 in 10.0 mi Calm Calm - N/A   Clear
5:56 AM 60.8 °F - 60.8 °F 100% 30.16 in 10.0 mi Calm Calm - N/A   Clear
6:16 AM 62.6 °F - 62.6 °F 100% 30.16 in 10.0 mi Calm Calm - N/A   Clear
6:35 AM 62.6 °F - 60.8 °F 94% 30.17 in 10.0 mi Calm Calm - N/A   Clear
6:40 AM 62.6 °F - 60.8 °F 94% 30.17 in 10.0 mi SSE 3.5 mph - N/A   Clear
6:57 AM 64.4 °F - 62.6 °F 94% 30.17 in 10.0 mi ESE 3.5 mph - N/A   Clear
6:59 AM 62.6 °F - 62.6 °F 100% 30.17 in 10.0 mi Calm Calm - N/A   Partly Cloudy
7:45 AM 68.0 °F - 64.4 °F 88% 30.19 in 10.0 mi Calm Calm - N/A   Scattered Clouds
8:45 AM 71.6 °F - 62.6 °F 73% 30.21 in 10.0 mi Variable 3.5 mph - N/A   Scattered Clouds
9:50 AM 75.2 °F - 62.6 °F 65% 30.21 in 10.0 mi South 6.9 mph - N/A   Scattered Clouds
10:45 AM 78.8 °F - 62.6 °F 57% 30.20 in 10.0 mi South 8.1 mph - N/A   Scattered Clouds
11:45 AM 80.6 °F 81.8 °F 62.6 °F 54% 30.19 in 10.0 mi South 10.4 mph - N/A   Scattered Clouds
12:45 PM 80.6 °F 81.5 °F 60.8 °F 51% 30.18 in 10.0 mi South 11.5 mph - N/A   Scattered Clouds
1:45 PM 82.4 °F 82.9 °F 60.8 °F 48% 30.17 in 10.0 mi SW 10.4 mph - N/A   Scattered Clouds
2:45 PM 84.2 °F 83.5 °F 57.2 °F 40% 30.16 in 10.0 mi SSW 10.4 mph - N/A   Scattered Clouds
3:45 PM 84.2 °F 84.4 °F 60.8 °F 45% 30.15 in 10.0 mi South 5.8 mph - N/A   Scattered Clouds
4:45 PM 84.2 °F 83.0 °F 55.4 °F 37% 30.13 in 10.0 mi SSW 8.1 mph - N/A   Scattered Clouds
5:45 PM 84.2 °F 82.8 °F 53.6 °F 35% 30.13 in 10.0 mi SSW 5.8 mph - N/A   Mostly Cloudy
6:50 PM 82.4 °F 82.0 °F 57.2 °F 42% 30.13 in 10.0 mi Calm Calm - N/A   Mostly Cloudy
7:45 PM 82.4 °F 81.7 °F 55.4 °F 39% 30.13 in 10.0 mi Calm Calm - N/A   Mostly Cloudy
8:45 PM 75.2 °F - 60.8 °F 61% 30.13 in 10.0 mi Calm Calm - N/A   Mostly Cloudy
9:45 PM 75.2 °F - 60.8 °F 61% 30.14 in 10.0 mi South 3.5 mph - N/A   Mostly Cloudy
10:16 PM 73.4 °F - 60.8 °F 65% 30.14 in 10.0 mi South 3.5 mph - N/A   Clear
10:35 PM 73.4 °F - 60.8 °F 65% 30.14 in 10.0 mi Calm Calm - N/A   Clear
10:57 PM 71.6 °F - 62.6 °F 73% 30.14 in 10.0 mi Calm Calm - N/A   Clear
11:16 PM 71.6 °F - 60.8 °F 69% 30.14 in 10.0 mi Calm Calm - N/A   Clear
11:36 PM 71.6 °F - 62.6 °F 73% 30.14 in 10.0 mi Calm Calm - N/A   Clear
11:55 PM 69.8 °F - 60.8 °F 73% 30.14 in 10.0 mi Calm Calm - N/A   Clear